owner,sensor,date,latitude,longitude,vertical_datum,wind_speed,wind_to_direction,wind_speed_of_gust,qcFlag 
DISL,ioos:station:DISL:DISL:1,2017-06-01T00:00:00Z,30.2513,-88.0778,9.68,2.23,155.1,-999.0,'1111122,1111122,1111122' 
DISL,ioos:station:DISL:DISL:1,2017-06-01T00:30:00Z,30.2513,-88.0778,9.68,2.99,170.3,-999.0,'1111122,1111122,1111122' 
DISL,ioos:station:DISL:DISL:1,2017-06-01T01:00:00Z,30.2513,-88.0778,9.68,2.59,173.8,-999.0,'1111122,1111122,1111122' 
DISL,ioos:station:DISL:DISL:1,2017-06-01T01:30:00Z,30.2513,-88.0778,9.68,3.14,186.3,-999.0,'1111122,1111122,1111122' 
DISL,ioos:station:DISL:DISL:1,2017-06-01T02:00:00Z,30.2513,-88.0778,9.68,3.61,174.3,-999.0,'1111122,1111122,1111122' 
DISL,ioos:station:DISL:DISL:1,2017-06-01T02:30:00Z,30.2513,-88.0778,9.68,1.9,173.8,-999.0,'1111122,1111122,1111122' 
DISL,ioos:station:DISL:DISL:1,2017-06-01T03:00:00Z,30.2513,-88.0778,9.68,1.34,250.6,-999.0,'1111122,1111122,1111122' 
DISL,ioos:station:DISL:DISL:1,2017-06-01T03:30:00Z,30.2513,-88.0778,9.68,0.43,293.1,-999.0,'1111122,1111122,1111122' 
DISL,ioos:station:DISL:DISL:1,2017-06-01T04:00:00Z,30.2513,-88.0778,9.68,0.93,274.5,-999.0,'1111122,1111122,1111122' 
DISL,ioos:station:DISL:DISL:1,2017-06-01T04:30:00Z,30.2513,-88.0778,9.68,0.36,190.4,-999.0,'1111122,1111122,1111122' 
DISL,ioos:station:DISL:DISL:1,2017-06-01T05:30:00Z,30.2513,-88.0778,9.68,3.23,84.5,-999.0,'1111122,1111122,1111122' 
DISL,ioos:station:DISL:DISL:1,2017-06-01T06:00:00Z,30.2513,-88.0778,9.68,3.72,88.8,-999.0,'1111122,1111122,1111122' 
DISL,ioos:station:DISL:DISL:1,2017-06-01T06:30:00Z,30.2513,-88.0778,9.68,4.61,81.3,-999.0,'1111122,1111122,1111122' 
DISL,ioos:station:DISL:DISL:1,2017-06-01T07:00:00Z,30.2513,-88.0778,9.68,3.93,73.65,-999.0,'1111122,1111122,1111122' 
DISL,ioos:station:DISL:DISL:1,2017-06-01T07:30:00Z,30.2513,-88.0778,9.68,3.96,77.11,-999.0,'1111122,1111122,1111122' 
DISL,ioos:station:DISL:DISL:1,2017-06-01T08:00:00Z,30.2513,-88.0778,9.68,3.32,89.9,-999.0,'1111122,1111122,1111122' 
DISL,ioos:station:DISL:DISL:1,2017-06-01T08:30:00Z,30.2513,-88.0778,9.68,2.75,82.3,-999.0,'1111122,1111122,1111122' 
DISL,ioos:station:DISL:DISL:1,2017-06-01T09:00:00Z,30.2513,-88.0778,9.68,3.42,81.5,-999.0,'1111122,1111122,1111122' 
DISL,ioos:station:DISL:DISL:1,2017-06-01T09:30:00Z,30.2513,-88.0778,9.68,3.66,78.39,-999.0,'1111122,1111122,1111122' 
DISL,ioos:station:DISL:DISL:1,2017-06-01T10:00:00Z,30.2513,-88.0778,9.68,4.19,94.6,-999.0,'1111122,1111122,1111122' 
DISL,ioos:station:DISL:DISL:1,2017-06-01T10:30:00Z,30.2513,-88.0778,9.68,4.61,105.0,-999.0,'1111122,1111122,1111122' 
DISL,ioos:station:DISL:DISL:1,2017-06-01T11:00:00Z,30.2513,-88.0778,9.68,4.38,95.3,-999.0,'1111122,1111122,1111122' 
DISL,ioos:station:DISL:DISL:1,2017-06-01T11:30:00Z,30.2513,-88.0778,9.68,4.52,84.0,-999.0,'1111122,1111122,1111122' 
DISL,ioos:station:DISL:DISL:1,2017-06-01T12:00:00Z,30.2513,-88.0778,9.68,4.18,88.5,-999.0,'1111122,1111122,1111122' 
DISL,ioos:station:DISL:DISL:1,2017-06-01T12:30:00Z,30.2513,-88.0778,9.68,4.23,92.1,-999.0,'1111122,1111122,1111122' 
DISL,ioos:station:DISL:DISL:1,2017-06-01T13:00:00Z,30.2513,-88.0778,9.68,3.99,92.9,-999.0,'1111122,1111122,1111122' 
DISL,ioos:station:DISL:DISL:1,2017-06-01T13:30:00Z,30.2513,-88.0778,9.68,3.67,91.6,-999.0,'1111122,1111122,1111122' 
DISL,ioos:station:DISL:DISL:1,2017-06-01T14:00:00Z,30.2513,-88.0778,9.68,3.9,102.7,-999.0,'1111122,1111122,1111122' 
DISL,ioos:station:DISL:DISL:1,2017-06-01T14:30:00Z,30.2513,-88.0778,9.68,4.88,133.3,-999.0,'1111122,1111122,1111122' 
DISL,ioos:station:DISL:DISL:1,2017-06-01T15:00:00Z,30.2513,-88.0778,9.68,3.81,147.4,-999.0,'1111122,1111122,1111122' 
DISL,ioos:station:DISL:DISL:1,2017-06-01T15:30:00Z,30.2513,-88.0778,9.68,3.63,133.6,-999.0,'1111122,1111122,1111122' 
DISL,ioos:station:DISL:DISL:1,2017-06-01T16:00:00Z,30.2513,-88.0778,9.68,2.21,151.9,-999.0,'1111122,1111122,1111122' 
DISL,ioos:station:DISL:DISL:1,2017-06-01T16:30:00Z,30.2513,-88.0778,9.68,1.86,217.6,-999.0,'1111122,1111122,1111122' 
DISL,ioos:station:DISL:DISL:1,2017-06-01T17:00:00Z,30.2513,-88.0778,9.68,1.7,296.5,-999.0,'1111122,1111122,1111122' 
DISL,ioos:station:DISL:DISL:1,2017-06-01T17:30:00Z,30.2513,-88.0778,9.68,3.25,326.0,-999.0,'1111122,1111122,1111122' 
DISL,ioos:station:DISL:DISL:1,2017-06-01T18:00:00Z,30.2513,-88.0778,9.68,2.37,328.2,-999.0,'1111122,1111122,1111122' 
DISL,ioos:station:DISL:DISL:1,2017-06-01T18:30:00Z,30.2513,-88.0778,9.68,2.03,342.5,-999.0,'1111122,1111122,1111122' 
DISL,ioos:station:DISL:DISL:1,2017-06-01T19:00:00Z,30.2513,-88.0778,9.68,2.16,356.2,-999.0,'1111122,1111122,1111122' 
DISL,ioos:station:DISL:DISL:1,2017-06-01T19:30:00Z,30.2513,-88.0778,9.68,1.92,65.54,-999.0,'1111122,1111122,1111122' 
DISL,ioos:station:DISL:DISL:1,2017-06-01T20:00:00Z,30.2513,-88.0778,9.68,1.72,77.9,-999.0,'1111122,1111122,1111122' 
DISL,ioos:station:DISL:DISL:1,2017-06-01T20:30:00Z,30.2513,-88.0778,9.68,1.72,57.67,-999.0,'1111122,1111122,1111122' 
DISL,ioos:station:DISL:DISL:1,2017-06-01T21:00:00Z,30.2513,-88.0778,9.68,1.72,52.95,-999.0,'1111122,1111122,1111122' 
DISL,ioos:station:DISL:DISL:1,2017-06-01T21:30:00Z,30.2513,-88.0778,9.68,1.8,57.47,-999.0,'1111122,1111122,1111122' 
DISL,ioos:station:DISL:DISL:1,2017-06-01T22:00:00Z,30.2513,-88.0778,9.68,2.21,95.3,-999.0,'1111122,1111122,1111122' 
DISL,ioos:station:DISL:DISL:1,2017-06-01T22:30:00Z,30.2513,-88.0778,9.68,3.04,120.5,-999.0,'1111122,1111122,1111122' 
DISL,ioos:station:DISL:DISL:1,2017-06-01T23:00:00Z,30.2513,-88.0778,9.68,3.47,126.0,-999.0,'1111122,1111122,1111122' 
DISL,ioos:station:DISL:DISL:1,2017-06-01T23:30:00Z,30.2513,-88.0778,9.68,3.04,140.1,-999.0,'1111122,1111122,1111122' 
DISL,ioos:station:DISL:DISL:1,2017-06-02T00:00:00Z,30.2513,-88.0778,9.68,3.42,126.4,-999.0,'1111122,1111122,1111122' 
DISL,ioos:station:DISL:DISL:1,2017-06-02T00:30:00Z,30.2513,-88.0778,9.68,2.78,144.1,-999.0,'1111122,1111122,1111122' 
DISL,ioos:station:DISL:DISL:1,2017-06-02T01:00:00Z,30.2513,-88.0778,9.68,2.99,184.3,-999.0,'1111122,1111122,1111122' 
DISL,ioos:station:DISL:DISL:1,2017-06-02T01:30:00Z,30.2513,-88.0778,9.68,2.16,187.9,-999.0,'1111122,1111122,1111122' 
DISL,ioos:station:DISL:DISL:1,2017-06-02T02:00:00Z,30.2513,-88.0778,9.68,0.76,187.4,-999.0,'1111122,1111122,1111122' 
DISL,ioos:station:DISL:DISL:1,2017-06-02T02:30:00Z,30.2513,-88.0778,9.68,0.02,322.5,-999.0,'1111122,1111122,1111122' 
DISL,ioos:station:DISL:DISL:1,2017-06-02T03:00:00Z,30.2513,-88.0778,9.68,1.9,355.7,-999.0,'1111122,1111122,1111122' 
DISL,ioos:station:DISL:DISL:1,2017-06-02T03:30:00Z,30.2513,-88.0778,9.68,2.23,1.238,-999.0,'1111122,1111122,1111122' 
DISL,ioos:station:DISL:DISL:1,2017-06-02T04:00:00Z,30.2513,-88.0778,9.68,2.85,67.32,-999.0,'1111122,1111122,1111122' 
DISL,ioos:station:DISL:DISL:1,2017-06-02T04:30:00Z,30.2513,-88.0778,9.68,2.37,79.53,-999.0,'1111122,1111122,1111122' 
DISL,ioos:station:DISL:DISL:1,2017-06-02T05:30:00Z,30.2513,-88.0778,9.68,2.34,122.5,-999.0,'1111122,1111122,1111122' 
DISL,ioos:station:DISL:DISL:1,2017-06-02T06:00:00Z,30.2513,-88.0778,9.68,2.52,129.7,-999.0,'1111122,1111122,1111122' 
DISL,ioos:station:DISL:DISL:1,2017-06-02T06:30:00Z,30.2513,-88.0778,9.68,2.93,127.4,-999.0,'1111122,1111122,1111122' 
DISL,ioos:station:DISL:DISL:1,2017-06-02T07:00:00Z,30.2513,-88.0778,9.68,2.76,137.8,-999.0,'1111122,1111122,1111122' 
DISL,ioos:station:DISL:DISL:1,2017-06-02T07:30:00Z,30.2513,-88.0778,9.68,2.41,152.4,-999.0,'1111122,1111122,1111122' 
DISL,ioos:station:DISL:DISL:1,2017-06-02T08:00:00Z,30.2513,-88.0778,9.68,2.86,150.2,-999.0,'1111122,1111122,1111122' 
DISL,ioos:station:DISL:DISL:1,2017-06-02T08:30:00Z,30.2513,-88.0778,9.68,2.12,135.7,-999.0,'1111122,1111122,1111122' 
DISL,ioos:station:DISL:DISL:1,2017-06-02T09:00:00Z,30.2513,-88.0778,9.68,2.96,132.0,-999.0,'1111122,1111122,1111122' 
DISL,ioos:station:DISL:DISL:1,2017-06-02T09:30:00Z,30.2513,-88.0778,9.68,3.09,127.5,-999.0,'1111122,1111122,1111122' 
DISL,ioos:station:DISL:DISL:1,2017-06-02T10:00:00Z,30.2513,-88.0778,9.68,2.97,118.7,-999.0,'1111122,1111122,1111122' 
DISL,ioos:station:DISL:DISL:1,2017-06-02T10:30:00Z,30.2513,-88.0778,9.68,2.59,128.5,-999.0,'1111122,1111122,1111122' 
DISL,ioos:station:DISL:DISL:1,2017-06-02T11:00:00Z,30.2513,-88.0778,9.68,3.08,123.1,-999.0,'1111122,1111122,1111122' 
DISL,ioos:station:DISL:DISL:1,2017-06-02T11:30:00Z,30.2513,-88.0778,9.68,2.93,119.7,-999.0,'1111122,1111122,1111122' 
DISL,ioos:station:DISL:DISL:1,2017-06-02T12:00:00Z,30.2513,-88.0778,9.68,2.94,129.2,-999.0,'1111122,1111122,1111122' 
DISL,ioos:station:DISL:DISL:1,2017-06-02T12:30:00Z,30.2513,-88.0778,9.68,2.92,126.0,-999.0,'1111122,1111122,1111122' 
DISL,ioos:station:DISL:DISL:1,2017-06-02T13:00:00Z,30.2513,-88.0778,9.68,2.76,115.8,-999.0,'1111122,1111122,1111122' 
DISL,ioos:station:DISL:DISL:1,2017-06-02T13:30:00Z,30.2513,-88.0778,9.68,3.27,101.1,-999.0,'1111122,1111122,1111122' 
DISL,ioos:station:DISL:DISL:1,2017-06-02T14:00:00Z,30.2513,-88.0778,9.68,3.3,96.3,-999.0,'1111122,1111122,1111122' 
DISL,ioos:station:DISL:DISL:1,2017-06-02T14:30:00Z,30.2513,-88.0778,9.68,2.79,126.7,-999.0,'1111122,1111122,1111122' 
DISL,ioos:station:DISL:DISL:1,2017-06-02T15:00:00Z,30.2513,-88.0778,9.68,2.86,125.0,-999.0,'1111122,1111122,1111122' 
DISL,ioos:station:DISL:DISL:1,2017-06-02T15:30:00Z,30.2513,-88.0778,9.68,3.14,148.8,-999.0,'1111122,1111122,1111122' 
DISL,ioos:station:DISL:DISL:1,2017-06-02T16:00:00Z,30.2513,-88.0778,9.68,3.62,161.9,-999.0,'1111122,1111122,1111122' 
DISL,ioos:station:DISL:DISL:1,2017-06-02T16:30:00Z,30.2513,-88.0778,9.68,3.84,174.6,-999.0,'1111122,1111122,1111122' 
DISL,ioos:station:DISL:DISL:1,2017-06-02T17:00:00Z,30.2513,-88.0778,9.68,4.33,178.7,-999.0,'1111122,1111122,1111122' 
DISL,ioos:station:DISL:DISL:1,2017-06-02T17:30:00Z,30.2513,-88.0778,9.68,4.54,151.7,-999.0,'1111122,1111122,1111122' 
DISL,ioos:station:DISL:DISL:1,2017-06-02T18:00:00Z,30.2513,-88.0778,9.68,5.14,143.9,-999.0,'1111122,1111122,1111122' 
DISL,ioos:station:DISL:DISL:1,2017-06-02T18:30:00Z,30.2513,-88.0778,9.68,4.93,148.1,-999.0,'1111122,1111122,1111122' 
DISL,ioos:station:DISL:DISL:1,2017-06-02T19:00:00Z,30.2513,-88.0778,9.68,4.41,155.0,-999.0,'1111122,1111122,1111122' 
DISL,ioos:station:DISL:DISL:1,2017-06-02T19:30:00Z,30.2513,-88.0778,9.68,3.3,139.9,-999.0,'1111122,1111122,1111122' 
DISL,ioos:station:DISL:DISL:1,2017-06-02T20:00:00Z,30.2513,-88.0778,9.68,3.38,134.1,-999.0,'1111122,1111122,1111122' 
DISL,ioos:station:DISL:DISL:1,2017-06-02T20:30:00Z,30.2513,-88.0778,9.68,4.78,153.3,-999.0,'1111122,1111122,1111122' 
DISL,ioos:station:DISL:DISL:1,2017-06-02T21:00:00Z,30.2513,-88.0778,9.68,5.67,143.9,-999.0,'1111122,1111122,1111122' 
DISL,ioos:station:DISL:DISL:1,2017-06-02T21:30:00Z,30.2513,-88.0778,9.68,5.32,152.3,-999.0,'1111122,1111122,1111122' 
DISL,ioos:station:DISL:DISL:1,2017-06-02T22:00:00Z,30.2513,-88.0778,9.68,4.72,157.0,-999.0,'1111122,1111122,1111122' 
DISL,ioos:station:DISL:DISL:1,2017-06-02T22:30:00Z,30.2513,-88.0778,9.68,4.42,164.0,-999.0,'1111122,1111122,1111122' 
DISL,ioos:station:DISL:DISL:1,2017-06-02T23:00:00Z,30.2513,-88.0778,9.68,2.88,183.0,-999.0,'1111122,1111122,1111122' 
DISL,ioos:station:DISL:DISL:1,2017-06-02T23:30:00Z,30.2513,-88.0778,9.68,2.65,172.7,-999.0,'1111122,1111122,1111122' 
DISL,ioos:station:DISL:DISL:1,2017-06-03T00:00:00Z,30.2513,-88.0778,9.68,3.98,165.9,-999.0,'1111122,1111122,1111122' 
DISL,ioos:station:DISL:DISL:1,2017-06-03T00:30:00Z,30.2513,-88.0778,9.68,2.98,190.1,-999.0,'1111122,1111122,1111122' 
DISL,ioos:station:DISL:DISL:1,2017-06-03T01:00:00Z,30.2513,-88.0778,9.68,2.39,192.0,-999.0,'1111122,1111122,1111122' 
DISL,ioos:station:DISL:DISL:1,2017-06-03T01:30:00Z,30.2513,-88.0778,9.68,3.38,148.0,-999.0,'1111122,1111122,1111122' 
DISL,ioos:station:DISL:DISL:1,2017-06-03T02:00:00Z,30.2513,-88.0778,9.68,3.05,165.1,-999.0,'1111122,1111122,1111122' 
DISL,ioos:station:DISL:DISL:1,2017-06-03T02:30:00Z,30.2513,-88.0778,9.68,3.85,173.4,-999.0,'1111122,1111122,1111122' 
DISL,ioos:station:DISL:DISL:1,2017-06-03T03:00:00Z,30.2513,-88.0778,9.68,3.66,161.7,-999.0,'1111122,1111122,1111122' 
DISL,ioos:station:DISL:DISL:1,2017-06-03T03:30:00Z,30.2513,-88.0778,9.68,3.62,169.0,-999.0,'1111122,1111122,1111122' 
DISL,ioos:station:DISL:DISL:1,2017-06-03T04:00:00Z,30.2513,-88.0778,9.68,4.31,145.4,-999.0,'1111122,1111122,1111122' 
DISL,ioos:station:DISL:DISL:1,2017-06-03T04:30:00Z,30.2513,-88.0778,9.68,3.61,149.4,-999.0,'1111122,1111122,1111122' 
DISL,ioos:station:DISL:DISL:1,2017-06-03T05:00:00Z,30.2513,-88.0778,9.68,4.48,140.5,-999.0,'1111122,1111122,1111122' 
DISL,ioos:station:DISL:DISL:1,2017-06-03T05:30:00Z,30.2513,-88.0778,9.68,5.11,137.1,-999.0,'1111122,1111122,1111122' 
DISL,ioos:station:DISL:DISL:1,2017-06-03T06:00:00Z,30.2513,-88.0778,9.68,6.19,121.5,-999.0,'1111122,1111122,1111122' 
DISL,ioos:station:DISL:DISL:1,2017-06-03T06:30:00Z,30.2513,-88.0778,9.68,5.27,120.9,-999.0,'1111122,1111122,1111122' 
DISL,ioos:station:DISL:DISL:1,2017-06-03T07:00:00Z,30.2513,-88.0778,9.68,4.94,136.2,-999.0,'1111122,1111122,1111122' 
DISL,ioos:station:DISL:DISL:1,2017-06-03T07:30:00Z,30.2513,-88.0778,9.68,5.78,131.3,-999.0,'1111122,1111122,1111122' 
DISL,ioos:station:DISL:DISL:1,2017-06-03T08:00:00Z,30.2513,-88.0778,9.68,4.85,147.5,-999.0,'1111122,1111122,1111122' 
DISL,ioos:station:DISL:DISL:1,2017-06-03T08:30:00Z,30.2513,-88.0778,9.68,4.67,136.1,-999.0,'1111122,1111122,1111122' 
DISL,ioos:station:DISL:DISL:1,2017-06-03T09:00:00Z,30.2513,-88.0778,9.68,3.78,150.2,-999.0,'1111122,1111122,1111122' 
DISL,ioos:station:DISL:DISL:1,2017-06-03T09:30:00Z,30.2513,-88.0778,9.68,3.48,153.2,-999.0,'1111122,1111122,1111122' 
DISL,ioos:station:DISL:DISL:1,2017-06-03T10:00:00Z,30.2513,-88.0778,9.68,3.33,167.0,-999.0,'1111122,1111122,1111122' 
DISL,ioos:station:DISL:DISL:1,2017-06-03T10:30:00Z,30.2513,-88.0778,9.68,2.49,153.6,-999.0,'1111122,1111122,1111122' 
DISL,ioos:station:DISL:DISL:1,2017-06-03T11:00:00Z,30.2513,-88.0778,9.68,2.61,144.0,-999.0,'1111122,1111122,1111122' 
DISL,ioos:station:DISL:DISL:1,2017-06-03T11:30:00Z,30.2513,-88.0778,9.68,3.4,152.8,-999.0,'1111122,1111122,1111122' 
DISL,ioos:station:DISL:DISL:1,2017-06-03T12:00:00Z,30.2513,-88.0778,9.68,3.61,170.4,-999.0,'1111122,1111122,1111122' 
DISL,ioos:station:DISL:DISL:1,2017-06-03T12:30:00Z,30.2513,-88.0778,9.68,2.96,183.4,-999.0,'1111122,1111122,1111122' 
DISL,ioos:station:DISL:DISL:1,2017-06-03T13:00:00Z,30.2513,-88.0778,9.68,2.82,175.6,-999.0,'1111122,1111122,1111122' 
DISL,ioos:station:DISL:DISL:1,2017-06-03T13:30:00Z,30.2513,-88.0778,9.68,3.92,191.1,-999.0,'1111122,1111122,1111122' 
DISL,ioos:station:DISL:DISL:1,2017-06-03T14:00:00Z,30.2513,-88.0778,9.68,4.05,167.4,-999.0,'1111122,1111122,1111122' 
DISL,ioos:station:DISL:DISL:1,2017-06-03T14:30:00Z,30.2513,-88.0778,9.68,3.65,163.0,-999.0,'1111122,1111122,1111122' 
DISL,ioos:station:DISL:DISL:1,2017-06-03T15:00:00Z,30.2513,-88.0778,9.68,4.39,150.4,-999.0,'1111122,1111122,1111122' 
DISL,ioos:station:DISL:DISL:1,2017-06-03T15:30:00Z,30.2513,-88.0778,9.68,3.82,167.1,-999.0,'1111122,1111122,1111122' 
DISL,ioos:station:DISL:DISL:1,2017-06-03T16:00:00Z,30.2513,-88.0778,9.68,4.22,161.8,-999.0,'1111122,1111122,1111122' 
DISL,ioos:station:DISL:DISL:1,2017-06-03T16:30:00Z,30.2513,-88.0778,9.68,4.39,156.6,-999.0,'1111122,1111122,1111122' 
DISL,ioos:station:DISL:DISL:1,2017-06-03T17:00:00Z,30.2513,-88.0778,9.68,3.46,167.7,-999.0,'1111122,1111122,1111122' 
DISL,ioos:station:DISL:DISL:1,2017-06-03T17:30:00Z,30.2513,-88.0778,9.68,3.67,168.3,-999.0,'1111122,1111122,1111122' 
DISL,ioos:station:DISL:DISL:1,2017-06-03T18:00:00Z,30.2513,-88.0778,9.68,2.9,157.8,-999.0,'1111122,1111122,1111122' 
DISL,ioos:station:DISL:DISL:1,2017-06-03T18:30:00Z,30.2513,-88.0778,9.68,3.28,144.0,-999.0,'1111122,1111122,1111122' 
DISL,ioos:station:DISL:DISL:1,2017-06-03T19:00:00Z,30.2513,-88.0778,9.68,3.63,145.5,-999.0,'1111122,1111122,1111122' 
DISL,ioos:station:DISL:DISL:1,2017-06-03T19:30:00Z,30.2513,-88.0778,9.68,2.43,137.8,-999.0,'1111122,1111122,1111122' 
DISL,ioos:station:DISL:DISL:1,2017-06-03T20:00:00Z,30.2513,-88.0778,9.68,3.56,119.7,-999.0,'1111122,1111122,1111122' 
DISL,ioos:station:DISL:DISL:1,2017-06-03T20:30:00Z,30.2513,-88.0778,9.68,3.57,131.1,-999.0,'1111122,1111122,1111122' 
DISL,ioos:station:DISL:DISL:1,2017-06-03T21:00:00Z,30.2513,-88.0778,9.68,3.04,125.4,-999.0,'1111122,1111122,1111122' 
DISL,ioos:station:DISL:DISL:1,2017-06-03T21:30:00Z,30.2513,-88.0778,9.68,3.29,133.9,-999.0,'1111122,1111122,1111122' 
DISL,ioos:station:DISL:DISL:1,2017-06-03T22:00:00Z,30.2513,-88.0778,9.68,3.08,150.6,-999.0,'1111122,1111122,1111122' 
DISL,ioos:station:DISL:DISL:1,2017-06-03T22:30:00Z,30.2513,-88.0778,9.68,1.03,67.2,-999.0,'1111122,1111122,1111122' 
DISL,ioos:station:DISL:DISL:1,2017-06-03T23:00:00Z,30.2513,-88.0778,9.68,1.75,7.625,-999.0,'1111122,1111122,1111122' 
DISL,ioos:station:DISL:DISL:1,2017-06-03T23:30:00Z,30.2513,-88.0778,9.68,1.21,8.85,-999.0,'1111122,1111122,1111122' 
DISL,ioos:station:DISL:DISL:1,2017-06-04T00:00:00Z,30.2513,-88.0778,9.68,2.45,205.9,-999.0,'1111122,1111122,1111122' 
DISL,ioos:station:DISL:DISL:1,2017-06-04T00:30:00Z,30.2513,-88.0778,9.68,3.3,290.2,-999.0,'1111122,1111122,1111122' 
DISL,ioos:station:DISL:DISL:1,2017-06-04T01:00:00Z,30.2513,-88.0778,9.68,1.27,284.3,-999.0,'1111122,1111122,1111122' 
DISL,ioos:station:DISL:DISL:1,2017-06-04T01:30:00Z,30.2513,-88.0778,9.68,1.49,59.53,-999.0,'1111122,1111122,1111122' 
DISL,ioos:station:DISL:DISL:1,2017-06-04T02:00:00Z,30.2513,-88.0778,9.68,3.33,98.1,-999.0,'1111122,1111122,1111122' 
DISL,ioos:station:DISL:DISL:1,2017-06-04T02:30:00Z,30.2513,-88.0778,9.68,3.42,89.6,-999.0,'1111122,1111122,1111122' 
DISL,ioos:station:DISL:DISL:1,2017-06-04T03:00:00Z,30.2513,-88.0778,9.68,4.81,103.5,-999.0,'1111122,1111122,1111122' 
DISL,ioos:station:DISL:DISL:1,2017-06-04T03:30:00Z,30.2513,-88.0778,9.68,4.93,116.6,-999.0,'1111122,1111122,1111122' 
DISL,ioos:station:DISL:DISL:1,2017-06-04T04:00:00Z,30.2513,-88.0778,9.68,3.94,144.1,-999.0,'1111122,1111122,1111122' 
DISL,ioos:station:DISL:DISL:1,2017-06-04T04:30:00Z,30.2513,-88.0778,9.68,3.3,135.7,-999.0,'1111122,1111122,1111122' 
DISL,ioos:station:DISL:DISL:1,2017-06-04T05:30:00Z,30.2513,-88.0778,9.68,3.69,143.6,-999.0,'1111122,1111122,1111122' 
DISL,ioos:station:DISL:DISL:1,2017-06-04T06:00:00Z,30.2513,-88.0778,9.68,3.24,148.4,-999.0,'1111122,1111122,1111122' 
DISL,ioos:station:DISL:DISL:1,2017-06-04T06:30:00Z,30.2513,-88.0778,9.68,3.23,167.1,-999.0,'1111122,1111122,1111122' 
DISL,ioos:station:DISL:DISL:1,2017-06-04T07:00:00Z,30.2513,-88.0778,9.68,3.42,154.8,-999.0,'1111122,1111122,1111122' 
DISL,ioos:station:DISL:DISL:1,2017-06-04T07:30:00Z,30.2513,-88.0778,9.68,3.62,158.7,-999.0,'1111122,1111122,1111122' 
DISL,ioos:station:DISL:DISL:1,2017-06-04T08:00:00Z,30.2513,-88.0778,9.68,3.03,148.7,-999.0,'1111122,1111122,1111122' 
DISL,ioos:station:DISL:DISL:1,2017-06-04T08:30:00Z,30.2513,-88.0778,9.68,2.23,122.9,-999.0,'1111122,1111122,1111122' 
DISL,ioos:station:DISL:DISL:1,2017-06-04T09:00:00Z,30.2513,-88.0778,9.68,2.54,119.5,-999.0,'1111122,1111122,1111122' 
DISL,ioos:station:DISL:DISL:1,2017-06-04T09:30:00Z,30.2513,-88.0778,9.68,2.73,113.9,-999.0,'1111122,1111122,1111122' 
DISL,ioos:station:DISL:DISL:1,2017-06-04T10:00:00Z,30.2513,-88.0778,9.68,3.17,102.3,-999.0,'1111122,1111122,1111122' 
DISL,ioos:station:DISL:DISL:1,2017-06-04T10:30:00Z,30.2513,-88.0778,9.68,3.67,85.3,-999.0,'1111122,1111122,1111122' 
DISL,ioos:station:DISL:DISL:1,2017-06-04T11:00:00Z,30.2513,-88.0778,9.68,4.19,91.4,-999.0,'1111122,1111122,1111122' 
DISL,ioos:station:DISL:DISL:1,2017-06-04T11:30:00Z,30.2513,-88.0778,9.68,4.82,82.7,-999.0,'1111122,1111122,1111122' 
DISL,ioos:station:DISL:DISL:1,2017-06-04T12:00:00Z,30.2513,-88.0778,9.68,4.89,84.8,-999.0,'1111122,1111122,1111122' 
DISL,ioos:station:DISL:DISL:1,2017-06-04T12:30:00Z,30.2513,-88.0778,9.68,5.95,85.4,-999.0,'1111122,1111122,1111122' 
DISL,ioos:station:DISL:DISL:1,2017-06-04T13:00:00Z,30.2513,-88.0778,9.68,5.2,97.7,-999.0,'1111122,1111122,1111122' 
DISL,ioos:station:DISL:DISL:1,2017-06-04T13:30:00Z,30.2513,-88.0778,9.68,4.19,104.7,-999.0,'1111122,1111122,1111122' 
DISL,ioos:station:DISL:DISL:1,2017-06-04T14:00:00Z,30.2513,-88.0778,9.68,4.76,102.4,-999.0,'1111122,1111122,1111122' 
DISL,ioos:station:DISL:DISL:1,2017-06-04T14:30:00Z,30.2513,-88.0778,9.68,4.91,102.5,-999.0,'1111122,1111122,1111122' 
DISL,ioos:station:DISL:DISL:1,2017-06-04T15:00:00Z,30.2513,-88.0778,9.68,5.13,110.2,-999.0,'1111122,1111122,1111122' 
DISL,ioos:station:DISL:DISL:1,2017-06-04T15:30:00Z,30.2513,-88.0778,9.68,4.92,125.0,-999.0,'1111122,1111122,1111122' 
DISL,ioos:station:DISL:DISL:1,2017-06-04T16:00:00Z,30.2513,-88.0778,9.68,4.68,132.2,-999.0,'1111122,1111122,1111122' 
DISL,ioos:station:DISL:DISL:1,2017-06-04T16:30:00Z,30.2513,-88.0778,9.68,4.54,136.3,-999.0,'1111122,1111122,1111122' 
DISL,ioos:station:DISL:DISL:1,2017-06-04T17:00:00Z,30.2513,-88.0778,9.68,4.59,136.6,-999.0,'1111122,1111122,1111122' 
DISL,ioos:station:DISL:DISL:1,2017-06-04T17:30:00Z,30.2513,-88.0778,9.68,4.78,141.1,-999.0,'1111122,1111122,1111122' 
DISL,ioos:station:DISL:DISL:1,2017-06-04T18:00:00Z,30.2513,-88.0778,9.68,5.24,136.6,-999.0,'1111122,1111122,1111122' 
DISL,ioos:station:DISL:DISL:1,2017-06-04T18:30:00Z,30.2513,-88.0778,9.68,4.52,154.1,-999.0,'1111122,1111122,1111122' 
DISL,ioos:station:DISL:DISL:1,2017-06-04T19:00:00Z,30.2513,-88.0778,9.68,4.26,152.2,-999.0,'1111122,1111122,1111122' 
DISL,ioos:station:DISL:DISL:1,2017-06-04T19:30:00Z,30.2513,-88.0778,9.68,3.64,155.6,-999.0,'1111122,1111122,1111122' 
DISL,ioos:station:DISL:DISL:1,2017-06-04T20:00:00Z,30.2513,-88.0778,9.68,4.25,165.6,-999.0,'1111122,1111122,1111122' 
DISL,ioos:station:DISL:DISL:1,2017-06-04T20:30:00Z,30.2513,-88.0778,9.68,3.54,165.8,-999.0,'1111122,1111122,1111122' 
DISL,ioos:station:DISL:DISL:1,2017-06-04T21:00:00Z,30.2513,-88.0778,9.68,3.71,159.8,-999.0,'1111122,1111122,1111122' 
DISL,ioos:station:DISL:DISL:1,2017-06-04T21:30:00Z,30.2513,-88.0778,9.68,2.7,201.4,-999.0,'1111122,1111122,1111122' 
DISL,ioos:station:DISL:DISL:1,2017-06-04T22:00:00Z,30.2513,-88.0778,9.68,3.09,167.8,-999.0,'1111122,1111122,1111122' 
DISL,ioos:station:DISL:DISL:1,2017-06-04T22:30:00Z,30.2513,-88.0778,9.68,2.62,167.5,-999.0,'1111122,1111122,1111122' 
DISL,ioos:station:DISL:DISL:1,2017-06-04T23:00:00Z,30.2513,-88.0778,9.68,3.17,164.2,-999.0,'1111122,1111122,1111122' 
DISL,ioos:station:DISL:DISL:1,2017-06-04T23:30:00Z,30.2513,-88.0778,9.68,3.16,176.4,-999.0,'1111122,1111122,1111122' 
DISL,ioos:station:DISL:DISL:1,2017-06-05T00:00:00Z,30.2513,-88.0778,9.68,2.81,180.1,-999.0,'1111122,1111122,1111122' 
DISL,ioos:station:DISL:DISL:1,2017-06-05T00:30:00Z,30.2513,-88.0778,9.68,2.71,172.9,-999.0,'1111122,1111122,1111122' 
DISL,ioos:station:DISL:DISL:1,2017-06-05T01:00:00Z,30.2513,-88.0778,9.68,2.97,176.1,-999.0,'1111122,1111122,1111122' 
DISL,ioos:station:DISL:DISL:1,2017-06-05T01:30:00Z,30.2513,-88.0778,9.68,3.2,163.0,-999.0,'1111122,1111122,1111122' 
DISL,ioos:station:DISL:DISL:1,2017-06-05T02:00:00Z,30.2513,-88.0778,9.68,3.26,159.3,-999.0,'1111122,1111122,1111122' 
DISL,ioos:station:DISL:DISL:1,2017-06-05T02:30:00Z,30.2513,-88.0778,9.68,3.47,173.2,-999.0,'1111122,1111122,1111122' 
DISL,ioos:station:DISL:DISL:1,2017-06-05T03:00:00Z,30.2513,-88.0778,9.68,3.25,167.6,-999.0,'1111122,1111122,1111122' 
DISL,ioos:station:DISL:DISL:1,2017-06-05T03:30:00Z,30.2513,-88.0778,9.68,2.16,199.0,-999.0,'1111122,1111122,1111122' 
DISL,ioos:station:DISL:DISL:1,2017-06-05T04:00:00Z,30.2513,-88.0778,9.68,2.72,182.4,-999.0,'1111122,1111122,1111122' 
DISL,ioos:station:DISL:DISL:1,2017-06-05T04:30:00Z,30.2513,-88.0778,9.68,2.83,172.6,-999.0,'1111122,1111122,1111122' 
DISL,ioos:station:DISL:DISL:1,2017-06-05T05:30:00Z,30.2513,-88.0778,9.68,3.54,166.2,-999.0,'1111122,1111122,1111122' 
DISL,ioos:station:DISL:DISL:1,2017-06-05T06:00:00Z,30.2513,-88.0778,9.68,3.21,173.4,-999.0,'1111122,1111122,1111122' 
DISL,ioos:station:DISL:DISL:1,2017-06-05T06:30:00Z,30.2513,-88.0778,9.68,3.58,171.0,-999.0,'1111122,1111122,1111122' 